{"data":{"norad_id":58590,"epoch":"2026-09-19T02:42:13.511232Z","epoch_age_seconds":269713,"freshness":"STALE","line1":"1 58590U 23200B   26262.11265638  .00000004  00000+0  96930-5 0  9999","line2":"2 58590  43.0043 159.8097 0002057 266.0821  93.9795 15.27575344153151","mean_motion":15.27575344,"eccentricity":0.0002057,"inclination_deg":43.0043,"raan_deg":159.8097,"arg_perigee_deg":266.0821,"mean_anomaly_deg":93.9795,"bstar":9.693e-6,"rev_number":15315,"period_min":94.267036035638,"perigee_km":481.65168896627,"apogee_km":484.47438666183,"semimajor_km":6861.2000378141,"source":"CELESTRAK","updated_at":"2026-09-21T09:00:33.917002Z"}}